Regional Weather Roundup
Issued by NWS

Home | Current Version | Previous Version | Graphics & Text | Print | Product List | Glossary On
Versions: 1 2 3 4 5 6 7 8 9 10 11 12 13 14 15 16 17 18 19 20 21 22 23 24 25 26 27 28 29 30 31 32 33 34 35 36 37 38 39 40 41 42 43 44 45 46 47 48 49 50
000
ASUS45 KTFX 192110
RWRMT
MONTANA REGIONAL WEATHER ROUNDUP
NATIONAL WEATHER SERVICE GREAT FALLS MT
200 PM MST SUN FEB 19 2017

NOTE: "FAIR" INDICATES FEW OR NO CLOUDS BELOW 12000 FEET WITH NO
SIGNIFICANT WEATHER AND/OR OBSTRUCTIONS TO VISIBILITY.

MTZ001>007-043-192200-
WEST OF THE DIVIDE

CITY           SKY/WX    TMP DP  RH WIND       PRES   REMARKS
KALISPELL      PTSUNNY   39  32  76 S10       29.51F
MISSOULA       PTSUNNY   46  31  55 N5        29.53S
BUTTE          CLOUDY    42  21  43 W6        29.52F
MULLAN PASS    PTSUNNY   29  27  92 SW8       29.49R WCI  21
ANACONDA         N/A     46  21  36 S18G25    29.51R
DEER LODGE       N/A     43  30  61 N6        29.53S
EUREKA           N/A     39  34  81 SW7       29.51R
HAMILTON         N/A     48  23  37 E5        29.51S
LIBBY            N/A     41  36  81 NW7       29.50S
PLAINS           N/A     40  33  76 CALM      29.57
RONAN            N/A     39  34  82 E3        29.61S
THOMPSON FALLS   N/A     42  41  97 CALM      29.61F
$$

MTZ008-052>055-192200-
SOUTHWEST MONTANA

CITY           SKY/WX    TMP DP  RH WIND       PRES   REMARKS
BOZEMAN        MOSUNNY   37  32  82 NE7       29.56F WCI  32
DILLON         CLOUDY    42  28  57 W5        29.54S
W YELLOWSTONE  CLOUDY    32  28  86 SW18G29   29.62R FOG     WCI  20
ENNIS          PTSUNNY   45  27  49 S23       29.59R
$$

MTZ009-010-012-014-046-048-049-054-192200-
EAST SLOPES AND CENTRAL MONTANA

CITY           SKY/WX    TMP DP  RH WIND       PRES   REMARKS
CUT BANK       CLOUDY    45  26  47 W22G29    29.45R
GREAT FALLS    CLOUDY    49  25  39 SW15      29.46S
MALMSTROM AFB  CLOUDY    49  26  39 SW24      29.48R
HELENA         MOSUNNY   44  37  76 NW5       29.51R
AUGUSTA          N/A     48  19  32 SW17G24   29.45R
BOWMANS CRNR     N/A     46  25  43 SW17G24   29.45R
CHOTEAU          N/A     50  19  29 SW10      29.46S
CONRAD           N/A     46  33  60 W5        29.53R
POWER            N/A     47  23  38 SW16      29.45R
RAYNESFORD     PTSUNNY   49  22  34 SW13      29.48R
ULM            PTSUNNY   49  28  44 MISG      29.48R
$$

MTZ011-013-016-021-045-047-050-051-192200-
NORTH CENTRAL MONTANA

CITY           SKY/WX    TMP DP  RH WIND       PRES   REMARKS
HAVRE          CLOUDY    44  36  73 W6        29.47R
LEWISTOWN      LGT RAIN  43  34  70 NW15G22   29.50R
N BAR RANCH      N/A     50  32  50 W10       29.47S
CHINOOK          N/A     41  36  81 W5        29.46R
DENTON         PTSUNNY   49  27  42 W22       29.45R
FORT BENTON      N/A     54  27  35 MISG      29.47R
GEYSER         PTSUNNY   48  19  32 W20G26    29.48R
GRASS RANGE    PTSUNNY   52  32  47 W18       29.42R
JUDITH GAP     PTSUNNY   45  31  57 W17       29.50R
ROY            PTSUNNY   53  29  40 MISG      29.43R
STANFORD       CLOUDY    44  27  51 W22G33    29.49R
WINIFRED       PTSUNNY   49  26  40 W18G29    29.46R
$$

MTZ017>020-022>027-061-062-192200-
NORTHEAST MONTANA

CITY           SKY/WX    TMP DP  RH WIND       PRES   REMARKS
GLASGOW        CLOUDY    34  32  92 SE10      29.45R FOG     WCI  26
JORDAN           N/A     61  34  36 W15       29.41R
SIDNEY         CLOUDY    43  35  73 N8        29.46R
WOLF POINT     CLOUDY    35  32  88 E8        29.47R FOG     WCI  29
PLENTYWOOD       N/A     34  34 100 E12       29.48R WCI  25
POPLAR           N/A     34  30  86 E8        29.47R WCI  27
SCOBEY           N/A     35  28  76 E5        29.47
$$

MTZ028>42-056>058-192200-
SOUTHCENTRAL AND SOUTHEAST MONTANA

CITY           SKY/WX    TMP DP  RH WIND       PRES   REMARKS
BAKER          CLOUDY    57  36  45 S12       29.44R
BILLINGS       CLOUDY    55  33  43 SW10      29.45S
LIVINGSTON     LGT SNOW  37  31  78 NW17G24   29.57R WCI  27
MILES CITY     CLOUDY    51  35  54 CALM      29.44R
BIG TIMBER     SUNNY     50  28  43 W30G39    29.50S
EKALAKA          N/A     58  34  40 SE7       29.48
FORSYTH          N/A     54  37  54 CALM      29.43R
HARLOWTON        N/A     42  33  70 W30G40    29.52R
LAUREL           N/A     55  30  38 SW8       29.50S
$$

REGIONAL REPORTS...DAKOTAS

CITY           SKY/WX    TMP DP  RH WIND       PRES   REMARKS
WILLISTON      CLOUDY    37  32  82 E7        29.47F WCI  32
MINOT          CLOUDY    40  35  83 E9        29.50F
DICKINSON      CLOUDY    50  37  61 S12       29.42F
BEACH            N/A    N/A N/A N/A MISG        N/A
CROSBY         CLOUDY    32  32 100 E15       29.52S FOG     WCI  22
TIOGA          CLOUDY    32  32 100 E13       29.49S FOG     WCI  22
WATFORD CITY     N/A     37  36  93 NE8       29.45F WCI  31
BISMARCK       CLOUDY    40  35  83 SE9       29.50F
GRAND FORKS    PTSUNNY   46  33  60 SE17      29.65F
FARGO          SUNNY     55  44  66 SE23G32   29.63F
BUFFALO SD       N/A     67  32  27 SW22G30   29.38S
RAPID CITY     CLOUDY    69  32  25 S21       29.48S
$$

REGIONAL REPORTS...WYOMING/IDAHO/WASHINGTON

CITY           SKY/WX    TMP DP  RH WIND       PRES   REMARKS
GILLETTE       CLOUDY    60  31  33 SW26G36   29.44R
SHERIDAN       CLOUDY    47  34  60 SE3       29.42F
BUFFALO WY     CLOUDY    61  25  25 SW15      29.44S
CODY           CLOUDY    49  28  44 W23G37    29.52R
YELLOWSTONE LA   N/A     31  27  85 VRB6      29.64R WCI  25
IDAHO FALLS    CLOUDY    39  36  89 SW14      29.67R WCI  31
SALMON         PTSUNNY   45  28  53 E3        29.53F
BOISE          MOSUNNY   51  29  42 SW13      29.63F
SPOKANE        LGT RAIN  37  35  92 CALM      29.53S FOG
$$

REGIONAL REPORTS...ALBERTA

CITY           SKY/WX    TMP DP  RH WIND       PRES   REMARKS
EDMONTON       CLOUDY    34  32  93 NW6       29.41R WCI  29
CALGARY        CLOUDY    32  28  86 NW2       29.40R
LETHBRIDGE     PTSUNNY   46  28  49 W17       29.41R
MEDICINE HAT   PTSUNNY   50  34  53 SW16      29.41R
WATERTON GATE    N/A     41  27  56 SW13G18     N/A
CARDSTON         N/A     43  21  42 SW8         N/A
MILK RIVER       N/A     46  27  46 W12G17      N/A
$$

REGIONAL REPORTS...SASKATCHEWAN

CITY           SKY/WX    TMP DP  RH WIND       PRES   REMARKS
SWIFT CURRENT  CLOUDY    41  36  81 S10       29.40S
REGINA         CLOUDY    36  32  87 E16G25    29.52S WCI  26
SASKATOON      CLOUDY    37  30  75 SE24G32   29.50F WCI  26
CYPRESS HILLS    N/A     39  32  75 NW7         N/A
VAL MARIE        N/A     45  34  65 SW6         N/A
ROCKGLEN         N/A     34  32  93 SE8         N/A  WCI  27
ASSINIBOIA       N/A     36  34  93 W2          N/A
$$



USA.gov is the U.S. government's official web portal to all federal, state and local government web resources and services.